This is the latest recevied weather packets stored in our database for station/object IZ5MMH-1. If no packets are shown the sender has not sent any weather packets the latest 10 day(s).
| Time | Temp. | Humidity | Pressure | Rain* | Wind** | Luminosity | Snow |
|---|---|---|---|---|---|---|---|
| 1787960099 | 27.22° C | 75% | 1016.2 hPa | - | - | - | - |
| 1787959502 | 27.22° C | 75% | 1016 hPa | - | - | - | - |
| 1787958898 | 27.22° C | 72% | 1016 hPa | - | - | - | - |
| 1787958299 | 27.22° C | 75% | 1015.9 hPa | - | - | - | - |
| 1787957699 | 27.22° C | 75% | 1016 hPa | - | - | - | - |
| 1787957098 | 27.22° C | 73% | 1015.7 hPa | - | - | - | - |
| 1787956499 | 27.22° C | 72% | 1015.8 hPa | - | - | - | - |
| 1787955899 | 27.22° C | 76% | 1015.5 hPa | - | - | - | - |
| 1787955299 | 27.22° C | 75% | 1015.5 hPa | - | - | - | - |
| 1787954699 | 27.22° C | 75% | 1015.4 hPa | - | - | - | - |
| 1787954098 | 27.22° C | 76% | 1015.1 hPa | - | - | - | - |
| 1787953498 | 27.78° C | 74% | 1014.9 hPa | - | - | - | - |
| 1787952898 | 27.78° C | 74% | 1014.8 hPa | - | - | - | - |
| 1787952298 | 27.78° C | 71% | 1015.3 hPa | - | - | - | - |
| 1787951699 | 28.33° C | 72% | 1015.3 hPa | - | - | - | - |
| 1787951098 | 28.33° C | 74% | 1015.4 hPa | - | - | - | - |
| 1787950499 | 28.33° C | 72% | 1015.6 hPa | - | - | - | - |
| 1787949897 | 28.33° C | 72% | 1015.7 hPa | - | - | - | - |
| 1787949298 | 28.33° C | 71% | 1016 hPa | - | - | - | - |
| 1787948697 | 28.33° C | 71% | 1016.2 hPa | - | - | - | - |
| 1787948097 | 28.33° C | 71% | 1016.2 hPa | - | - | - | - |
| 1787947497 | 28.33° C | 72% | 1016.2 hPa | - | - | - | - |
| 1787946899 | 28.89° C | 74% | 1016.2 hPa | - | - | - | - |
| 1787946298 | 28.89° C | 71% | 1016.2 hPa | - | - | - | - |
| 1787945698 | 28.89° C | 73% | 1016 hPa | - | - | - | - |
* Rain since midnight (hover to see other rain measurements)
** Current wind speed in m/s (hover to see current wind gust speed)